Wind_Speed
25 25 25 25 25 23 20 19 20 22 22 22 22 21 20 19 19 19 19 19 19 19 20 20 21 21 20 18 17 15 14 13 12 11 10 9 8 7 6 5 4 3 2 1 1 1 1 2 2 3 3 3 3 3 4 4 4 4 4 4 4 5 5 5 5 5 5 5 5
24 25 25 25 23 21 20 20 21 22 23 22 22 21 21 20 20 20 19 19 20 21 22 22 22 21 20 18 17 15 14 13 12 11 10 9 8 6 5 4 3 3 2 1 1 1 1 2 2 2 3 3 3 3 3 4 4 4 4 4 4 5 5 5 5 5 5 6 6
24 25 25 23 22 21 20 21 23 23 23 22 22 21 20 20 20 20 20 21 22 23 24 24 23 22 20 19 17 15 14 13 12 11 10 9 7 6 5 4 3 2 2 1 0 1 1 1 2 2 3 3 2 2 3 5 5 4 4 4 5 5 5 5 5 5 5 5 6
24 24 23 22 22 22 22 23 24 24 24 23 22 21 20 20 21 21 22 23 24 24 25 25 24 22 20 19 17 16 14 13 12 11 10 9 7 6 5 4 3 2 1 0 1 1 2 2 2 2 2 2 2 3 4 5 5 5 4 5 5 5 5 5 5 5 5 6 6
22 21 21 21 22 23 24 25 25 25 24 24 23 21 21 21 22 23 23 24 24 25 25 25 24 22 20 19 18 16 15 14 12 11 10 8 7 6 5 4 3 2 1 1 1 2 2 2 3 3 2 2 3 4 4 5 5 4 5 5 5 5 5 5 5 5 6 6 6
20 20 20 21 23 24 25 25 26 25 25 24 23 23 22 23 23 24 24 25 25 26 25 24 23 22 20 19 18 16 15 14 12 11 9 8 7 6 5 4 3 2 1 1 2 2 3 3 3 3 3 3 3 4 5 5 5 4 4 4 4 5 5 5 5 6 6 6 7
20 20 20 22 23 25 25 25 25 25 25 24 23 23 24 24 25 25 26 27 27 26 25 24 23 22 21 19 18 17 15 14 12 11 9 8 7 6 5 4 2 1 1 1 2 2 2 2 2 3 3 3 3 4 5 6 5 5 4 4 4 5 5 5 5 6 6 7 8
19 20 21 23 24 25 26 26 25 25 24 23 23 24 25 26 27 27 27 27 27 26 25 23 23 22 21 20 18 17 15 14 12 11 9 8 6 5 4 3 2 1 1 2 2 2 2 2 2 2 3 3 3 4 5 6 6 5 5 5 5 5 5 5 6 6 7 8 8
19 20 22 24 25 25 26 26 25 24 23 23 23 24 26 27 28 28 28 27 27 26 24 23 22 21 20 19 18 16 15 13 12 11 9 7 6 5 4 3 2 1 1 2 2 2 3 3 3 3 3 4 4 4 5 7 7 6 5 5 5 5 6 6 6 7 7 8 8
20 21 23 23 24 25 25 25 24 24 23 23 24 25 26 28 28 28 27 27 26 25 24 23 21 20 19 18 17 16 14 13 12 10 9 7 6 4 3 3 2 1 2 2 2 3 3 2 2 3 4 4 4 5 6 7 7 6 6 6 6 6 7 7 7 7 8 8 8
22 23 23 23 23 24 25 24 23 23 23 24 25 26 26 27 27 27 27 27 26 24 23 22 21 20 19 17 16 15 14 12 11 10 8 7 5 4 3 2 1 1 2 2 3 3 2 2 3 3 4 4 5 5 6 7 7 7 6 6 7 7 7 8 7 7 8 8 9
22 23 23 23 24 25 25 24 23 23 24 25 26 26 26 26 26 27 26 26 25 23 22 21 20 19 18 17 16 14 13 12 10 9 7 6 4 3 2 2 1 2 2 2 3 3 2 2 3 3 4 4 4 4 5 6 7 7 7 7 7 8 8 8 8 8 8 8 9
23 23 23 23 25 25 25 24 23 24 25 25 25 25 25 25 25 26 25 25 23 23 22 20 19 18 18 17 15 14 13 11 9 8 6 5 3 2 2 1 1 2 2 3 3 3 3 3 3 4 4 4 4 4 5 6 7 7 7 7 8 8 9 9 9 9 9 9 10
23 23 23 24 25 25 24 24 23 24 24 25 25 25 25 25 24 24 24 23 23 22 21 20 18 17 16 15 14 13 11 10 8 6 5 4 2 2 1 1 1 2 2 3 3 3 3 3 4 5 5 5 5 6 6 6 7 7 7 8 8 9 9 9 9 9 9 10 10
23 23 24 25 25 24 24 23 23 23 24 24 24 25 24 24 23 23 23 23 22 22 21 20 19 17 16 14 13 12 10 8 7 5 4 3 2 1 1 1 2 2 2 3 4 4 4 4 5 5 6 6 6 6 7 7 7 8 8 8 9 9 10 10 10 10 10 10 11
23 23 24 24 24 24 23 23 22 23 24 24 24 24 23 22 22 22 22 22 22 21 21 20 19 17 15 13 12 10 9 7 6 4 3 2 2 1 1 1 2 2 3 3 4 4 4 5 5 6 7 7 7 7 7 7 8 8 8 9 9 10 10 10 10 10 10 11 11
22 23 23 23 23 23 23 22 23 23 24 24 24 23 22 22 22 22 22 22 21 21 20 19 18 17 15 13 11 9 8 7 5 4 3 2 2 1 1 1 2 3 3 3 3 4 4 5 6 7 7 8 8 8 8 8 8 9 9 9 10 10 10 10 10 10 10 11 11
22 22 22 23 23 23 23 24 24 25 25 25 24 23 22 22 22 21 21 21 21 20 19 18 17 15 14 12 11 9 7 6 5 4 3 2 1 1 1 2 3 3 4 4 4 4 4 5 6 6 7 8 8 8 8 9 9 9 10 10 10 10 10 10 10 10 11 11 12
22 22 22 22 22 23 24 25 25 26 25 25 24 23 22 22 22 21 21 20 20 19 19 17 16 14 12 11 9 8 7 5 4 3 2 1 0 1 2 3 3 4 5 5 5 5 5 5 6 6 7 7 8 8 8 9 9 10 10 10 11 11 11 11 11 11 11 12 12
21 21 22 22 23 24 25 25 26 26 25 24 23 23 22 22 21 21 20 20 19 18 17 16 14 13 11 9 8 7 6 4 3 2 1 1 1 1 2 3 4 5 5 5 6 6 6 6 6 6 7 7 8 8 9 9 10 10 11 11 11 11 11 11 12 12 12 12 13
21 21 22 23 24 25 25 25 25 25 24 23 23 22 22 21 21 20 20 20 18 17 15 14 13 12 10 8 7 6 5 3 3 2 1 1 1 2 3 4 4 5 6 6 6 6 6 6 7 7 7 8 8 9 9 10 10 11 11 11 12 12 12 12 12 12 12 13 13
21 22 23 24 25 25 25 25 25 24 23 23 22 22 22 21 21 20 20 19 17 16 14 13 11 10 9 7 6 5 4 3 2 2 1 1 2 3 3 4 5 5 6 6 6 7 7 7 7 7 8 8 9 9 10 10 10 11 12 12 13 13 13 13 12 13 13 13 14
23 23 24 25 25 25 25 25 24 24 23 22 22 21 21 21 21 20 19 18 16 15 13 12 10 9 8 6 5 4 3 3 2 1 1 2 2 3 4 5 5 6 6 6 7 7 7 7 7 7 8 8 9 10 10 10 11 12 13 13 13 13 13 13 13 13 13 14 14
24 25 25 25 25 25 25 24 24 23 22 22 21 21 21 21 20 19 18 17 15 14 13 11 10 8 7 6 5 4 3 2 2 1 1 2 3 4 4 5 6 6 6 7 7 7 7 7 7 8 8 9 10 10 11 11 12 12 13 13 14 14 13 13 13 13 14 15 15
25 26 26 25 25 24 24 23 23 22 22 22 22 21 21 20 19 18 17 16 14 13 11 10 9 7 6 5 4 4 3 2 1 1 1 2 3 4 5 6 6 7 7 8 8 8 7 7 7 8 9 10 10 11 11 12 12 12 13 13 13 14 14 14 14 14 15 15 15
26 26 25 25 24 24 23 22 22 22 22 22 22 21 20 19 18 17 16 15 13 12 10 9 8 7 6 5 4 3 3 2 1 1 2 3 4 5 5 6 6 7 8 9 9 8 7 7 7 9 10 10 11 11 12 12 12 12 13 13 13 13 14 14 14 15 15 15 15
25 25 25 24 24 23 22 22 22 22 22 22 21 20 19 18 17 16 15 14 13 11 10 8 7 6 6 5 4 3 2 1 1 2 3 3 4 5 6 6 7 8 9 9 9 9 8 7 8 9 10 10 11 11 12 12 12 12 12 12 12 13 13 14 14 15 15 15 16
25 25 24 23 23 22 22 22 22 22 21 21 20 19 18 17 16 15 15 13 12 10 9 8 7 6 5 5 4 2 2 1 2 3 4 5 6 6 7 7 7 9 9 10 9 9 8 8 9 9 10 10 11 12 12 12 12 12 12 12 12 12 13 13 14 15 15 16 16
25 24 24 23 22 22 21 21 21 21 21 20 19 18 17 16 16 15 14 12 11 10 9 8 7 6 5 4 3 2 2 2 3 4 5 6 6 7 7 8 8 9 10 10 9 8 8 8 9 10 10 11 11 12 12 12 12 12 12 12 12 12 13 14 14 15 16 16 16
24 24 23 22 22 21 21 21 21 20 20 19 18 17 16 16 15 14 13 12 11 9 8 7 6 6 5 4 3 2 2 3 4 5 6 6 6 7 8 8 9 10 10 10 9 9 8 9 10 10 11 11 12 12 12 12 12 12 12 12 12 13 13 14 15 15 16 16 16
23 23 23 22 21 21 20 20 20 19 19 18 17 16 16 15 14 13 12 11 10 8 7 6 6 5 4 3 3 3 3 4 5 6 6 7 7 8 8 9 9 10 10 10 9 9 9 10 10 11 11 12 12 12 12 12 12 12 12 12 13 13 14 14 14 15 15 16 16
23 23 22 22 21 20 20 20 19 18 17 17 16 16 16 15 14 13 11 10 9 8 7 6 5 4 4 3 3 4 4 5 5 6 7 7 8 9 9 9 9 9 10 10 10 9 9 10 11 11 12 12 13 13 12 12 12 12 12 13 13 14 14 14 14 15 15 16 16
22 22 22 21 21 20 19 19 18 17 17 17 16 16 15 14 13 12 11 9 9 8 7 6 5 4 4 4 4 4 4 5 6 7 8 8 9 9 9 8 7 9 11 11 10 10 10 10 11 12 13 13 13 13 12 12 12 12 12 13 13 14 14 14 14 15 15 15 16
22 22 21 21 20 20 19 18 18 17 17 17 16 15 14 13 13 11 11 9 9 8 7 5 4 4 4 4 4 4 4 5 6 7 8 9 9 9 8 7 6 9 11 11 11 10 10 11 11 12 13 14 13 12 12 12 12 12 13 13 14 14 14 14 14 14 15 15 15
22 22 21 21 20 19 19 18 18 18 17 16 15 15 14 13 12 11 10 9 7 6 5 4 4 4 4 4 5 5 5 5 6 7 8 9 9 8 8 7 7 9 11 12 11 11 11 11 12 13 14 14 13 12 12 12 13 13 13 13 14 14 14 14 14 14 15 15 15
22 22 22 21 20 19 19 18 18 17 17 16 16 15 14 13 12 11 9 8 6 6 5 4 4 5 5 5 5 5 5 6 6 7 8 8 8 8 7 7 7 9 11 12 11 11 11 11 12 13 14 13 13 12 12 12 12 13 13 13 13 13 14 14 14 14 15 15 15
22 22 22 21 20 19 19 18 18 17 17 16 15 15 13 12 11 10 8 7 6 5 5 5 5 4 4 4 5 5 6 7 7 7 7 8 8 8 8 7 7 8 10 11 12 11 11 12 12 13 14 13 13 12 12 12 12 12 13 13 13 13 14 14 14 14 15 15 15
22 22 22 21 20 19 18 18 17 17 17 16 15 14 13 12 11 9 8 7 6 5 5 4 4 4 4 5 5 6 7 7 7 7 7 7 8 8 8 8 8 8 10 11 12 12 12 12 13 13 14 13 13 13 12 12 12 12 13 13 13 13 14 14 14 14 14 15 16
21 21 21 21 20 19 18 17 17 17 17 16 15 13 12 11 10 8 7 6 6 5 4 4 4 5 6 6 6 6 6 7 7 7 7 7 8 8 8 8 8 8 10 11 12 12 12 12 13 13 14 13 13 12 12 12 12 13 13 13 13 14 14 14 14 14 15 16 17
21 21 21 20 19 18 17 17 17 16 16 15 14 13 11 10 9 8 7 6 5 5 5 4 5 6 6 6 5 5 5 6 6 7 7 7 8 8 8 8 8 9 10 11 12 13 12 13 13 13 13 13 12 12 12 12 12 13 13 13 14 14 14 14 14 15 16 16 16
20 20 20 19 18 18 17 17 17 16 15 14 13 12 10 9 8 7 6 6 5 5 5 5 6 6 6 6 5 5 4 4 5 6 7 7 7 8 8 8 8 9 9 10 11 12 12 13 13 13 13 13 12 12 12 12 12 13 13 13 14 14 15 15 15 15 16 16 17
Wind_Direction
163 162 161 162 162 162 162 164 165 165 164 163 162 162 162 161 159 157 157 156 155 154 155 157 159 159 159 159 160 160 160 161 162 163 163 163 161 159 157 154 150 144 132 114 75 38 9 350 338 335 331 325 311 297 297 304 303 298 292 289 284 282 281 280 277 276 278 279 280
162 162 162 162 162 162 162 163 164 165 164 163 162 162 161 160 158 157 156 156 156 156 157 158 159 159 158 159 160 160 160 161 162 163 163 162 162 161 158 154 151 146 137 122 89 23 354 342 336 327 322 319 310 284 279 294 299 294 284 280 278 281 284 282 281 281 283 285 283
161 162 162 162 162 162 162 162 164 164 163 162 161 160 159 158 157 156 155 156 157 158 158 157 158 157 157 158 159 160 161 162 163 163 162 161 161 161 159 158 156 153 146 140 136 337 336 332 326 316 314 311 292 261 263 283 297 295 280 274 276 281 285 284 283 284 287 289 288
161 161 162 163 163 163 163 164 164 163 161 160 159 158 158 157 156 155 155 156 157 158 158 157 156 157 157 158 159 160 162 163 164 163 162 161 161 161 161 161 161 163 165 194 297 322 327 328 321 317 311 294 266 252 260 278 291 291 282 279 282 284 285 285 285 286 289 291 291
161 162 163 164 164 164 165 165 163 161 160 159 158 157 157 156 155 154 154 154 156 157 158 158 157 157 157 158 159 160 161 163 164 163 162 161 161 161 162 164 167 175 195 271 308 323 328 329 323 317 305 282 264 258 266 281 286 285 283 286 288 288 287 286 285 286 289 292 292
160 162 163 164 165 165 164 164 162 161 159 159 158 157 157 156 155 154 154 154 156 157 158 157 157 156 157 158 158 159 160 162 163 163 163 163 163 163 164 168 177 192 232 288 315 325 331 331 322 310 300 289 270 271 281 293 293 290 286 283 283 287 288 286 285 286 289 291 294
160 161 161 163 164 164 163 162 161 160 159 158 158 157 157 156 155 155 155 155 156 156 156 156 156 156 156 157 158 160 160 161 161 162 163 163 164 165 168 174 188 211 253 301 317 327 330 325 312 298 291 289 273 274 285 298 300 296 290 281 278 282 286 284 283 286 289 291 295
159 159 161 162 164 163 162 161 160 159 158 157 157 157 157 156 155 155 155 155 154 155 156 156 157 157 157 158 159 160 160 160 160 161 163 164 164 166 172 182 199 226 270 304 317 320 320 317 306 287 277 279 276 272 280 295 302 303 296 285 281 281 282 283 284 286 289 293 295
156 158 160 161 162 161 160 159 159 158 156 155 155 156 156 156 156 155 154 153 154 155 155 155 156 157 158 158 159 160 160 160 160 161 162 164 165 169 177 190 209 243 282 307 313 313 313 309 299 285 280 285 280 274 281 296 303 304 298 288 285 284 283 284 285 287 290 293 295
155 157 158 158 158 159 158 157 157 155 154 152 153 154 155 155 155 154 154 154 154 154 154 154 155 156 157 158 159 159 159 160 161 161 162 164 168 174 182 195 214 251 283 303 309 313 310 301 282 277 283 292 287 283 289 300 304 302 296 289 287 287 287 287 288 290 291 294 296
154 155 156 155 155 155 155 154 153 152 151 150 151 152 153 153 153 154 154 154 152 152 152 153 154 155 156 157 158 159 160 160 161 162 163 166 172 180 190 202 223 256 280 298 305 309 302 289 270 272 284 293 295 292 293 300 302 299 292 288 288 288 290 290 292 293 294 296 298
152 153 153 153 153 153 152 150 149 149 149 149 149 150 150 151 152 153 152 151 150 150 151 152 153 155 156 158 159 160 160 161 161 162 165 169 178 188 203 222 251 274 286 298 304 305 297 284 277 279 285 292 293 288 287 294 297 294 289 287 288 289 291 293 295 296 297 299 300
150 150 150 151 152 152 151 148 147 147 147 147 148 148 149 150 151 151 150 149 148 148 149 151 154 156 158 159 160 160 160 160 161 163 166 172 182 193 214 245 275 289 294 301 310 312 304 295 297 295 291 290 286 283 285 290 291 290 287 288 289 291 293 296 297 298 299 299 300
149 149 149 150 151 150 148 146 144 145 146 146 147 147 148 148 148 149 148 148 148 148 148 151 154 157 159 160 160 160 159 159 160 163 167 174 185 198 222 256 288 295 297 303 316 322 320 307 308 307 301 295 289 288 288 290 290 288 288 289 291 293 295 297 298 299 299 299 300
147 148 149 150 149 148 146 144 143 144 145 145 146 146 146 145 146 147 148 148 148 148 149 151 154 157 159 159 159 158 158 157 158 162 166 172 182 198 232 266 291 302 306 310 319 325 325 317 313 310 306 300 295 292 290 290 288 288 288 289 291 293 295 297 297 298 298 299 300
146 147 148 148 147 146 145 143 143 144 145 145 146 145 144 144 146 147 148 148 148 149 151 153 154 155 156 156 156 156 155 155 156 159 162 170 180 205 244 275 297 308 314 320 320 321 321 320 316 312 307 302 298 294 291 290 288 287 287 288 289 291 293 294 296 296 297 298 299
145 146 147 147 147 146 145 144 144 145 145 145 145 144 144 144 145 147 148 149 150 151 152 153 154 154 153 152 152 152 151 151 152 156 161 171 184 207 252 290 307 319 326 328 321 312 310 311 311 309 306 302 298 295 292 291 289 287 287 287 288 289 290 291 292 293 294 296 297
144 145 146 146 146 146 145 145 145 145 145 145 145 144 144 145 146 147 149 151 152 152 152 152 153 152 151 150 150 149 149 149 151 157 163 173 185 229 289 316 324 331 335 336 328 316 305 302 302 301 300 297 295 293 291 290 288 287 287 288 288 288 288 288 289 291 292 294 296
143 144 145 145 146 146 146 145 145 145 145 145 145 144 144 145 146 147 149 151 153 153 152 151 150 150 150 149 148 147 148 149 153 158 161 162 163 333 334 334 336 337 339 338 332 324 315 306 300 296 293 291 290 289 288 287 287 287 288 288 288 289 288 287 287 288 290 292 294
142 143 144 145 146 146 145 145 145 145 144 144 144 144 144 145 146 147 148 149 152 153 152 150 148 148 147 147 146 146 146 148 150 150 141 89 21 358 347 342 340 340 341 339 335 328 320 312 303 296 293 290 289 288 288 288 288 289 290 290 291 290 289 288 287 287 288 290 292
141 142 144 145 145 145 144 144 144 143 143 142 142 143 143 144 146 147 148 148 150 150 149 148 147 146 146 146 146 146 145 145 139 132 109 46 11 354 347 344 344 342 341 339 335 328 322 314 307 301 295 291 289 289 289 290 290 291 292 293 293 292 290 288 286 286 287 289 291
140 141 142 144 144 143 143 142 142 141 141 141 141 142 142 143 145 146 146 146 146 146 146 145 145 144 144 143 144 143 139 132 124 110 76 27 3 352 347 345 346 345 343 338 334 329 325 320 314 305 296 290 289 289 290 291 292 293 295 295 294 293 291 288 286 286 287 289 292
139 140 141 142 142 141 141 140 139 139 139 139 139 140 141 143 144 144 144 143 143 144 143 143 143 142 140 139 137 134 127 119 107 86 51 13 355 350 347 347 348 346 342 338 335 333 329 325 317 307 299 294 292 291 291 291 293 295 296 297 296 294 291 289 287 287 289 291 293
138 139 139 140 139 139 138 138 137 137 137 137 138 140 140 141 142 141 141 142 143 143 144 143 142 139 137 134 129 122 116 109 96 66 27 4 355 350 350 349 348 345 342 339 337 336 336 331 320 311 306 303 299 296 294 293 293 295 295 296 296 295 292 290 289 290 291 293 295
137 138 138 137 137 137 136 136 135 135 135 137 138 139 139 139 140 140 141 142 143 144 143 141 138 135 131 127 120 115 110 104 90 50 13 357 352 352 352 351 348 344 342 341 339 339 340 337 323 314 310 308 305 302 298 295 294 294 295 295 295 294 293 292 291 292 293 295 297
135 135 135 135 135 135 134 134 134 134 135 137 137 137 138 138 140 141 141 142 142 142 140 137 133 129 125 121 118 115 112 102 75 36 8 358 353 353 353 351 346 343 342 343 342 342 342 336 322 314 310 309 306 303 300 297 295 294 294 294 293 293 293 294 295 296 297 298 299
133 133 133 133 133 132 132 133 133 134 134 135 136 136 137 139 140 141 142 141 140 138 136 132 129 126 123 121 121 119 113 90 51 21 8 360 357 355 353 349 346 344 344 344 343 343 341 332 320 314 311 309 307 304 301 298 296 294 294 293 292 292 293 295 297 299 301 302 303
132 132 132 131 131 131 131 132 132 132 133 135 136 137 138 139 140 141 141 140 139 137 135 133 129 126 125 126 125 116 95 57 26 13 6 1 358 356 353 349 346 344 344 344 343 343 339 330 320 316 314 312 308 304 300 297 295 294 294 293 293 294 295 297 300 302 303 304 305
130 130 130 129 129 129 130 131 131 132 134 135 136 137 138 139 140 141 140 139 138 137 136 134 131 130 130 128 119 98 62 34 18 10 5 2 358 354 351 348 345 344 343 342 343 341 336 327 321 317 316 314 310 305 300 297 295 295 295 295 295 297 298 300 302 303 304 305 305
129 129 129 128 128 129 129 130 132 133 134 136 136 137 137 139 140 140 139 138 137 137 136 134 133 131 128 118 98 70 41 22 12 7 4 1 357 352 348 346 345 343 342 341 341 339 334 326 322 318 317 314 310 305 300 297 295 295 295 296 297 298 300 301 302 303 304 305 305
129 129 128 128 128 128 130 131 133 134 135 135 135 136 137 139 139 140 139 139 137 135 133 130 129 124 113 93 69 46 28 15 9 5 1 357 353 349 347 346 344 342 340 339 339 337 331 326 322 319 317 315 311 306 300 297 296 295 295 296 298 300 301 302 303 303 304 305 306
128 128 128 127 128 129 130 131 132 133 134 134 136 137 139 140 140 139 138 136 134 131 128 125 117 105 87 67 48 33 21 13 6 1 356 354 351 349 348 346 343 339 337 337 337 335 330 326 323 320 318 316 312 305 300 297 295 295 296 297 298 300 301 302 302 303 304 305 306
128 128 128 128 128 129 130 131 132 133 134 136 138 140 140 140 139 137 135 133 130 127 122 115 105 92 76 59 44 31 18 8 360 356 353 352 350 349 349 347 341 335 334 336 336 334 330 326 323 321 319 317 312 306 300 298 296 296 297 298 299 300 300 300 301 302 303 304 305
129 129 128 128 129 130 131 132 133 134 136 137 139 140 140 138 136 134 132 130 126 122 117 109 98 83 68 53 43 32 17 5 358 354 352 350 349 348 348 344 337 333 333 335 336 334 330 327 324 322 321 318 313 307 302 300 299 298 298 299 299 299 300 300 300 301 302 303 305
130 130 129 129 130 131 132 133 135 136 137 137 138 138 138 136 133 130 127 124 120 115 108 97 81 63 48 36 28 22 13 4 357 352 350 349 348 347 344 340 333 332 333 336 336 334 331 328 325 325 323 320 314 309 305 303 301 300 299 300 300 300 301 301 301 302 303 304 305
132 132 131 131 132 133 134 135 137 138 138 138 138 138 136 133 129 124 120 117 112 103 91 77 62 51 41 31 21 14 7 1 355 351 348 347 346 345 341 337 332 332 333 335 335 334 332 330 328 327 325 322 317 312 308 306 304 302 302 302 302 303 303 304 303 304 305 306 305
135 135 134 134 134 135 136 138 138 139 139 139 138 137 134 130 124 120 117 112 103 91 78 68 60 51 39 27 15 5 360 357 355 352 348 345 344 343 340 335 331 329 330 333 335 335 334 332 330 329 327 323 319 315 311 308 306 304 304 304 304 305 306 306 306 307 307 307 305
137 137 137 136 136 137 138 139 140 140 139 138 137 134 131 126 121 117 114 108 98 89 78 68 58 43 27 18 9 2 357 354 352 351 348 344 342 341 338 332 328 326 328 332 335 337 337 334 332 331 329 325 321 317 313 309 307 306 306 307 306 307 307 308 308 308 307 305 303
138 139 139 138 137 138 139 140 140 140 139 137 134 131 127 123 119 116 112 105 96 88 79 65 45 28 19 15 11 3 355 350 349 348 347 344 339 339 337 332 326 324 327 331 336 339 338 335 333 332 330 326 322 318 314 311 309 308 308 309 309 309 309 309 309 308 306 302 302
139 139 139 139 139 139 139 139 139 139 137 134 131 128 125 121 117 112 105 96 87 78 65 48 31 21 16 14 12 6 357 351 347 345 344 342 339 338 338 332 327 325 327 332 337 339 338 334 333 333 331 328 324 319 315 312 311 310 310 311 311 311 310 310 309 307 305 303 303
138 139 139 139 139 140 140 139 138 137 134 131 128 125 122 119 112 104 95 84 74 63 50 37 24 16 12 9 6 2 359 354 346 342 341 342 340 339 337 333 329 328 328 331 334 336 335 333 332 332 332 330 326 320 316 314 313 312 312 312 312 311 311 310 309 307 306 306 306
Height
751 753 755 757 760 762 765 767 768 770 772 773 774 776 778 780 781 782 783 785 786 787 788 790 791 792 793 795 796 797 798 799 800 801 802 802 803 804 804 805 805 806 806 806 807 807 807 807 807 807 807 807 807 807 807 807 807 807 806 806 806 806 805 805 805 804 803 803 802
751 752 754 757 759 762 764 766 768 769 771 772 774 776 777 779 780 781 782 784 785 786 787 789 790 792 793 794 796 797 797 799 800 801 802 802 803 803 804 805 805 805 806 806 806 806 806 807 807 807 807 807 807 807 807 806 806 806 806 805 805 805 804 804 803 803 802 802 802
750 752 754 757 759 761 763 765 767 768 770 772 773 775 777 778 779 780 782 783 784 785 787 788 790 791 792 794 795 796 797 798 799 800 801 802 802 803 804 804 805 805 805 805 805 806 806 806 806 806 806 806 806 806 806 805 805 805 805 805 804 804 803 803 802 802 802 801 801
750 752 754 756 758 760 762 764 766 767 769 771 773 775 776 777 778 779 781 782 783 785 786 787 789 791 792 793 794 796 797 798 799 800 801 802 802 803 803 804 804 804 805 805 805 805 805 805 805 805 805 805 806 806 805 805 804 804 804 803 803 803 802 802 802 801 801 800 800
750 752 754 756 757 759 761 762 764 766 768 770 772 774 775 776 777 779 780 782 783 784 786 787 788 790 791 793 794 795 797 797 799 799 800 801 802 802 803 803 804 804 804 804 804 804 804 804 804 804 805 805 805 805 804 804 803 803 803 802 802 802 802 801 801 800 800 800 799
751 752 754 756 758 759 761 762 764 765 767 769 771 772 774 776 777 778 779 781 782 784 785 787 788 789 791 792 794 795 796 797 798 799 800 801 802 802 803 803 803 803 803 803 803 803 803 804 804 804 804 804 804 804 803 803 802 802 802 802 801 801 801 800 800 800 799 799 798
750 752 754 756 758 759 761 762 764 765 767 769 771 772 773 775 776 777 779 780 782 783 785 787 788 789 791 792 793 795 796 797 798 799 800 801 801 802 802 802 803 803 803 803 803 803 803 803 803 803 803 803 803 802 802 802 802 801 801 801 801 800 800 800 799 799 798 798 797
751 752 754 756 757 759 760 762 764 766 767 769 771 772 773 774 775 777 778 780 782 783 785 786 787 789 790 792 793 794 796 797 798 799 799 800 801 801 802 802 802 802 802 802 802 802 802 802 802 802 802 802 802 802 801 801 801 800 800 800 800 799 799 799 798 798 797 797 797
751 753 754 756 757 759 761 762 764 766 767 769 771 772 773 774 775 777 778 780 781 783 784 786 787 789 790 792 793 794 795 796 797 798 799 800 801 801 802 802 802 802 802 802 802 802 802 802 802 802 802 801 801 801 801 800 799 799 799 799 799 799 798 798 798 797 797 796 796
751 752 754 756 758 759 761 763 765 766 767 769 771 772 773 774 775 777 778 779 781 783 784 786 787 789 790 792 793 794 795 796 797 798 799 799 800 801 801 801 801 801 801 801 801 801 801 801 801 801 801 800 800 800 799 799 799 798 798 798 798 798 798 797 797 797 796 795 795
750 752 754 756 758 760 762 764 765 767 768 769 771 772 773 774 776 777 778 779 781 783 785 786 787 789 790 792 793 794 795 796 797 798 798 799 800 800 801 801 801 801 801 801 801 801 801 801 800 800 800 800 799 799 799 798 798 798 798 798 797 797 797 797 796 796 795 794 794
751 753 755 757 759 760 762 764 765 767 768 769 771 772 774 775 776 777 778 780 782 783 785 786 787 789 790 792 793 794 795 796 797 797 798 799 799 800 800 800 800 800 800 800 800 800 800 800 800 799 799 799 799 798 798 797 797 797 797 797 797 796 796 795 795 795 794 793 793
751 753 755 757 759 761 762 763 765 767 768 770 771 772 774 775 777 778 779 781 782 783 785 787 788 789 790 791 792 794 795 796 797 797 798 798 799 799 799 800 800 800 800 799 799 799 799 799 799 798 798 798 798 798 797 797 797 797 796 796 796 795 795 794 794 793 793 792 792
752 754 756 757 759 761 762 764 765 767 769 770 772 773 774 776 777 779 780 781 782 783 785 787 788 789 790 792 792 794 795 795 796 797 797 798 798 799 799 799 799 799 799 799 798 798 798 798 798 798 797 797 797 797 797 796 796 796 795 795 795 794 794 793 793 792 792 791 790
752 754 756 757 759 761 762 764 766 767 769 771 772 773 775 776 778 779 780 781 782 784 785 787 788 789 791 792 793 794 795 795 796 797 797 798 798 798 798 798 798 798 798 798 798 797 797 797 797 797 797 797 796 796 796 796 795 795 794 794 794 793 792 792 792 791 791 790 789
753 755 756 758 760 761 763 765 766 768 769 771 772 774 775 777 778 779 781 782 783 784 785 787 788 789 791 792 793 794 795 795 796 797 797 797 798 798 798 798 798 797 797 797 797 797 797 796 796 796 796 796 795 795 795 795 794 794 793 793 792 792 792 791 791 790 789 789 788
753 755 757 759 760 762 763 765 766 768 770 771 773 774 776 777 778 780 781 782 783 784 786 787 788 790 791 792 793 794 795 795 796 797 797 797 797 797 797 797 797 797 797 797 797 796 796 796 796 795 795 795 794 794 794 793 793 793 792 792 792 791 790 790 789 789 788 788 787
754 756 757 759 761 762 764 765 767 768 770 771 773 774 776 777 778 780 781 782 783 785 786 787 789 790 791 792 793 794 795 795 796 796 797 797 797 797 797 797 797 796 796 796 796 796 796 795 795 795 794 794 793 793 793 792 792 792 791 791 790 790 789 789 788 788 787 787 786
754 756 758 760 761 762 764 765 767 768 770 772 773 775 776 777 779 780 782 783 784 786 787 788 789 791 792 792 793 794 795 795 796 796 796 796 796 796 796 796 796 796 795 795 795 795 795 795 794 794 793 793 793 792 792 792 791 791 790 790 789 789 788 788 787 787 786 786 785
755 757 758 760 762 763 765 766 767 769 771 772 774 775 777 778 779 781 782 784 785 786 787 788 790 791 792 792 793 794 794 795 795 796 796 796 796 796 796 795 795 795 795 795 794 794 794 794 793 793 793 792 792 792 791 791 790 790 789 789 788 788 787 787 786 785 785 784 784
755 757 759 761 762 764 765 767 768 770 772 773 774 776 777 779 780 782 783 784 786 787 788 789 790 791 792 793 793 794 794 795 795 795 795 795 795 795 795 795 795 794 794 794 794 794 793 793 793 792 792 792 791 791 790 790 789 789 788 788 787 787 786 786 785 784 784 783 782
756 757 759 761 762 764 766 767 769 771 772 774 775 777 778 779 781 782 784 785 786 787 789 790 791 792 792 793 793 794 794 794 794 795 795 795 795 794 794 794 794 794 794 793 793 793 792 792 792 791 791 791 790 790 789 789 788 788 787 787 786 786 785 784 784 783 782 782 781
756 758 760 762 763 765 767 768 770 772 773 775 776 777 779 780 782 783 784 786 787 788 789 790 791 792 792 793 793 793 794 794 794 794 794 794 794 794 794 794 793 793 793 793 792 792 792 791 791 791 790 790 789 789 788 788 787 787 786 786 785 784 784 783 782 782 781 781 780
756 758 760 762 764 766 768 769 771 772 774 775 777 778 780 781 782 784 785 786 787 789 790 791 791 792 792 793 793 793 793 794 794 794 794 794 794 793 793 793 793 793 792 792 792 791 791 791 790 790 790 789 789 788 787 787 787 786 785 784 784 783 782 782 781 781 780 779 778
757 759 761 763 765 767 768 770 772 773 775 776 777 779 780 782 783 784 786 787 788 789 790 791 791 792 792 792 793 793 793 793 793 793 793 793 793 793 793 792 792 792 792 791 791 790 790 790 790 789 789 789 788 787 787 786 785 785 784 783 782 782 781 780 780 779 778 778 777
758 760 762 764 766 768 769 771 772 774 775 777 778 780 781 783 784 785 786 787 788 789 790 791 791 792 792 792 793 793 793 793 793 793 793 793 793 792 792 792 792 792 791 790 790 789 789 789 789 789 788 788 787 787 786 785 784 784 783 782 782 781 780 779 778 778 777 776 775
759 761 763 765 767 768 770 772 773 774 776 777 779 781 782 783 785 786 787 788 789 790 790 791 791 792 792 792 793 793 793 793 793 793 793 792 792 792 792 792 791 791 790 789 789 788 788 788 788 788 788 787 787 786 785 784 783 782 782 781 780 780 779 778 777 776 775 775 774
760 762 764 766 767 769 771 772 774 775 777 778 780 781 783 784 785 786 787 788 789 790 790 791 791 792 792 792 792 793 793 793 792 792 792 792 792 791 791 791 790 790 789 788 788 788 787 787 787 787 787 786 786 785 784 783 782 782 781 780 779 778 778 777 776 775 774 773 772
761 762 765 767 768 770 772 773 775 776 778 779 781 782 783 785 786 787 788 788 789 790 790 791 791 792 792 792 792 792 792 792 792 792 792 791 791 791 790 790 789 789 788 788 787 787 787 787 787 786 786 785 785 784 783 782 781 781 780 779 778 777 777 776 775 774 773 772 772
762 764 766 767 769 771 773 774 776 777 779 780 782 783 784 785 786 787 788 789 789 790 790 791 791 792 792 792 792 792 792 792 792 791 791 791 790 790 789 789 788 788 787 787 787 787 786 786 786 785 785 784 784 783 782 781 780 780 779 778 777 777 776 775 774 773 772 771 770
763 765 767 768 770 772 774 775 777 778 780 781 782 783 785 786 787 787 788 789 789 790 790 791 791 792 792 792 792 792 792 791 791 791 790 790 790 789 789 788 788 787 787 786 786 786 786 785 785 784 784 783 783 782 781 780 779 778 778 777 776 775 775 774 773 772 771 771 770
764 766 768 770 772 773 775 776 778 779 780 782 783 784 785 786 787 787 788 789 789 790 790 791 791 791 792 792 792 791 791 791 791 790 790 789 789 788 788 787 787 787 786 786 785 785 785 784 784 783 783 782 782 781 780 779 778 777 777 776 775 774 774 773 772 771 770 770 769
765 767 769 771 772 774 776 777 778 780 781 782 783 784 785 786 787 787 788 789 789 790 790 791 791 791 791 791 791 791 791 790 790 789 789 788 788 787 787 787 787 786 785 785 785 784 784 783 783 782 782 781 780 779 779 778 777 776 775 775 774 773 772 772 771 770 769 769 768
767 768 770 772 773 775 776 778 779 780 782 782 784 785 785 786 787 787 788 789 789 790 790 791 791 791 791 791 791 791 790 790 789 789 788 787 787 787 787 787 786 785 785 784 784 783 783 782 782 782 781 780 779 778 777 777 776 775 774 773 773 772 772 771 770 769 768 768 767
767 769 771 772 774 775 777 778 780 781 782 783 784 785 786 786 787 788 788 789 789 790 790 791 791 791 791 791 790 790 790 789 788 788 787 787 787 787 786 786 786 785 784 783 783 783 782 782 781 781 780 779 778 777 776 776 775 774 773 772 772 771 770 770 769 768 767 767 766
768 770 771 773 774 776 777 779 780 781 782 783 784 785 786 787 787 788 788 789 789 790 790 790 790 790 790 790 790 789 789 788 788 787 787 787 786 786 786 786 785 784 783 783 782 782 782 781 780 780 779 778 777 776 775 774 773 772 772 771 771 770 769 768 768 767 766 766 765
769 771 772 773 775 777 778 779 780 782 782 783 784 785 786 787 787 788 788 789 790 790 790 790 790 790 790 790 789 789 788 787 787 787 787 786 786 786 785 785 784 784 783 782 782 781 781 780 779 779 778 777 776 775 774 773 772 772 771 770 769 769 768 767 767 766 765 765 764
770 772 773 774 776 777 778 780 781 782 783 784 784 785 786 787 787 788 789 789 790 790 790 790 790 790 789 789 788 788 787 787 787 786 786 786 785 785 785 784 784 783 782 782 781 780 780 779 778 778 777 776 775 774 773 772 772 771 770 769 768 768 767 767 766 765 764 764 763
771 772 774 775 776 777 779 780 781 782 783 784 785 786 786 787 787 788 789 789 790 790 790 790 789 789 788 788 788 787 787 787 786 786 786 785 785 784 784 784 783 782 782 781 780 779 779 778 777 777 776 776 775 774 773 772 771 770 769 768 768 767 766 766 765 764 763 762 762
772 773 774 776 777 778 779 780 782 782 783 784 785 786 787 787 788 788 789 789 789 789 789 789 789 788 788 787 787 787 787 786 786 785 785 785 784 784 783 783 782 782 781 780 779 778 778 777 777 776 776 775 774 773 772 771 770 769 769 768 767 766 765 765 764 763 762 761 760
773 774 775 777 778 779 780 781 782 783 783 784 785 786 787 787 788 788 789 789 789 789 789 788 788 788 787 787 787 787 787 786 786 785 785 784 784 783 783 782 782 781 780 779 778 778 777 777 776 776 775 774 774 773 772 771 770 769 768 767 767 766 765 763 763 762 761 760 759